Regional Weather Roundup
Issued by NWS

Home | Current Version | Previous Version | Graphics & Text | Print | Product List | Glossary On
Versions: 1 2 3 4 5 6 7 8 9 10 11 12 13 14 15 16 17 18 19 20 21 22 23 24 25 26 27 28 29 30 31 32 33 34 35 36 37 38 39 40 41 42 43 44 45 46 47 48 49 50
000
ASUS43 KIND 281759
RWRIN

WEATHER ROUNDUP FOR INDIANA
NATIONAL WEATHER SERVICE INDIANAPOLIS IN
200 PM EDT SAT MAY 28 2016

NOTE: "FAIR" INDICATES FEW OR NO CLOUDS BELOW 12,000 FEET WITH NO
SIGNIFICANT WEATHER AND/OR OBSTRUCTIONS TO VISIBILITY.

* - STATION DOES NOT REPORT WEATHER SUCH AS PRECIPITATION OR FOG.

+ - STATION NOT QUALITY CONTROLLED BY THE NATIONAL WEATHER SERVICE.
    USE DATA WITH CAUTION...ESPECIALLY DEWPOINT AND RELATIVE
    HUMIDITY OBSERVATIONS.

INZ001>003-010>013-019-020-281900-
NORTHWEST INDIANA

CITY           SKY/WX    TMP DP  RH WIND       PRES   REMARKS
GARY /AIRPORT/ CLOUDY    79  72  78 S14G28    29.95S
RENSSELAER +   CLOUDY    75  68  78 S14G22    29.99S

$$

LMZ046-743>745-281900-
SOUTHERN LAKE MICHIGAN

STATION/POSITION TIME  TEMP    WIND        PRES    WAVE
                       AIR SEA DIR/SP/G            HT
                 (UTC) (F)     (DEG/KT/KT) (MB)    (FT)
BURNS HARBOR     1700   75     190/ 14/ 25 1014.9R
MICHIGAN CITY    1700   76     160/ 18/ 22   N/A
5NW MICH CITY    1700   71 58  210/ 17/ 23   N/A     2

$$

INZ004-005-014>016-021>024-281900-
NORTH CENTRAL INDIANA

CITY           SKY/WX    TMP DP  RH WIND       PRES   REMARKS
GOSHEN         CLOUDY    83  59  44 S23G33    30.00F
6HR MIN TEMP:  73; 6HR MAX TEMP:  84;

SOUTH BEND     CLOUDY    80  63  55 S17G28    29.99F
6HR MIN TEMP:  73; 6HR MAX TEMP:  80; 6HR PCP: TRACE;


$$

INZ006>009-017-018-025>027-281900-
NORTHEAST INDIANA

CITY           SKY/WX    TMP DP  RH WIND       PRES   REMARKS
ANGOLA *+        N/A     84  63  48 S16       30.02F
FORT WAYNE     CLOUDY    85  61  44 SW16G30   30.03F
6HR MIN TEMP:  73; 6HR MAX TEMP:  85; 6HR PCP: TRACE;


$$

INZ028-029-035-036-043>045-051>053-281900-
WEST CENTRAL INDIANA

CITY           SKY/WX    TMP DP  RH WIND       PRES   REMARKS
CRAWFORDSVL +  MOSUNNY   82  62  49 SW23G30   30.00F
6HR MIN TEMP:  71; 6HR MAX TEMP:  82;

GREENCASTLE +  MOSUNNY   81  68  65 S13G24    30.02F
LAFAYETTE      CLOUDY    80  60  50 S16G28    29.99F
6HR MIN TEMP:  73; 6HR MAX TEMP:  80;

TERRE HAUTE    MOSUNNY   81  63  54 SW16G24   30.00F
6HR MIN TEMP:  73; 6HR MAX TEMP:  83;


$$

INZ030>032-037>040-046>048-054>057-064-065-281900-
CENTRAL INDIANA

CITY           SKY/WX    TMP DP  RH WIND       PRES   REMARKS
ANDERSON       MOSUNNY   82  64  54 S15G22    30.05
COLUMBUS       MOSUNNY   81  72  74 S12G21    30.05F
INDIANAPOLIS   PTSUNNY   80  64  58 S17       30.02S
6HR MIN TEMP:  72; 6HR MAX TEMP:  82;

-EAGLE CREEK   MOSUNNY   82  63  52 S13G20    30.02F
6HR MIN TEMP:  72; 6HR MAX TEMP:  83;

KOKOMO *+      MOSUNNY   82  63  51 SW20G29   30.00F
6HR MIN TEMP:  72; 6HR MAX TEMP:  82;

SHELBYVILLE    CLOUDY    83  66  56 S13       30.04F
6HR MIN TEMP:  73; 6HR MAX TEMP:  85;


$$

INZ033-034-041-042-049-050-058-059-281900-
EAST CENTRAL INDIANA

CITY           SKY/WX    TMP DP  RH WIND       PRES   REMARKS
MUNCIE         MOSUNNY   85  62  46 SW10G23   30.04F
6HR MIN TEMP:  73; 6HR MAX TEMP:  86;


$$

INZ060-061-067>069-081>083-085>088-281900-
SOUTHWEST INDIANA

CITY           SKY/WX    TMP DP  RH WIND       PRES   REMARKS
EVANSVILLE     CLOUDY    83  60  45 S20G25    30.02F
6HR MIN TEMP:  71; 6HR MAX TEMP:  83;

HUNTINGBURG *+ CLOUDY    79  66  65 S8        30.04F
6HR MIN TEMP:  72; 6HR MAX TEMP:  81;


$$

INZ062-063-066-070>080-084-089>092-281900-
SOUTH CENTRAL AND SOUTHEAST INDIANA

CITY           SKY/WX    TMP DP  RH WIND       PRES   REMARKS
BLOOMINGTON    CLOUDY    82  65  56 S13       30.04F
6HR MIN TEMP:  71; 6HR MAX TEMP:  82;

MADISON *+     CLOUDY    81  63  54 S8        30.10F
SEYMOUR +      CLOUDY    84  66  54 S10       30.05F

$$





USA.gov is the U.S. government's official web portal to all federal, state and local government web resources and services.